Tracking 27111 objects as of 28-Mar-2023
HD Live streaming from Space Station
objects crossing your sky now

STARLINK-5759

Track STARLINK-5759 now!
10-day predictions
STARLINK-5759 is classified as:


NORAD ID: 55592
Int'l Code: 2023-020Z
Perigee: 559.3 km
Apogee: 561.2 km
Inclination: 43.0 °
Period: 95.7 minutes
Semi major axis: 6931 km
RCS: Unknown
Launch date: February 12, 2023
Source: United States (US)
Launch site: AIR FORCE EASTERN TEST RANGE (AFETR)
Your satellite tracking list
Your tracking list is empty




NASA's NSSDC Master Catalog

Two Line Element Set (TLE):
1 55592U 23020Z   23086.91667824  .00016567  00000-0  11765-2 0  9992
2 55592  42.9992 100.8642 0001375 262.7033 158.2117 15.04474135  1306
Source of the keplerian elements: AFSPC